SR9NCI Weather Reports


Display with metric or nautical units.
time (UTC)temp
F
wind
direction
speed
MPH
gust
MPH
rain 1hr
in
rain 24hr
in
rain mn
in
humidity
%
barometer
mb
20260505041358 66 111 3.0 5.0 0.00 0.00 0.00
20260505040956 66 138 4.0 7.0 0.00 0.00 0.00
20260505040555 65 146 6.0 9.0 0.00 0.00 0.00
20260505040152 65 127 4.0 6.0 0.00 0.00 0.00
20260505035750 65 117 5.0 9.0 0.00 0.00 0.00
20260505035343 65 130 4.0 6.0 0.00 0.00 0.00
20260505034941 65 149 5.0 8.0 0.00 0.00 0.00
20260505034539 64 124 5.0 10.0 0.00 0.00 0.00
20260505034138 63 97 5.0 8.0 0.00 0.00 0.00
20260505033736 64 124 4.0 8.0 0.00 0.00 0.00
20260505033335 63 111 2.0 4.0 0.00 0.00 0.00
20260505032932 63 111 3.0 5.0 0.00 0.00 0.00
20260505032530 63 111 3.0 6.0 0.00 0.00 0.00
20260505032129 63 111 4.0 6.0 0.00 0.00 0.00
20260505031728 62 102 5.0 8.0 0.00 0.00 0.00
20260505031320 63 111 3.0 6.0 0.00 0.00 0.00
20260505030916 62 90 2.0 5.0 0.00 0.00 0.00
20260505030516 62 90 3.0 6.0 0.00 0.00 0.00
20260505030115 63 97 5.0 7.0 0.00 0.00 0.00
20260505025713 63 111 5.0 8.0 0.00 0.00 0.00
20260505025311 63 104 6.0 9.0 0.00 0.00 0.00
20260505024909 63 86 5.0 8.0 0.00 0.00 0.00
20260505024508 63 101 5.0 6.0 0.00 0.00 0.00
20260505024107 62 111 5.0 6.0 0.00 0.00 0.00
20260505023704 62 111 1.0 2.0 0.00 0.00 0.00
20260505023256 62 111 0.0 2.0 0.00 0.00 0.00
20260505022854 62 111 0.0 2.0 0.00 0.00 0.00
20260505022453 62 111 1.0 3.0 0.00 0.00 0.00
20260505021649 63 129 3.0 5.0 0.00 0.00 0.00
20260505021248 64 125 4.0 6.0 0.00 0.00 0.00
20260505020846 64 111 3.0 4.0 0.00 0.00 0.00
20260505020445 64 120 4.0 9.0 0.00 0.00 0.00
20260505020043 64 121 6.0 9.0 0.00 0.00 0.00
20260505015641 64 126 5.0 9.0 0.00 0.00 0.00
20260505015233 64 116 5.0 8.0 0.00 0.00 0.00
20260505014831 64 115 6.0 8.0 0.00 0.00 0.00
20260505014429 64 115 6.0 9.0 0.00 0.00 0.00
20260505014029 64 124 7.0 10.0 0.00 0.00 0.00
20260505013627 64 125 8.0 10.0 0.00 0.00 0.00
20260505013226 64 141 7.0 10.0 0.00 0.00 0.00
20260505012822 64 156 6.0 11.0 0.00 0.00 0.00
20260505012422 64 138 6.0 10.0 0.00 0.00 0.00
20260505012021 64 127 5.0 8.0 0.00 0.00 0.00
20260505011619 64 144 5.0 8.0 0.00 0.00 0.00
20260505011211 64 135 5.0 8.0 0.00 0.00 0.00
20260505010808 64 153 4.0 6.0 0.00 0.00 0.00
20260505010407 64 135 3.0 5.0 0.00 0.00 0.00
20260505010006 64 135 5.0 7.0 0.00 0.00 0.00
20260505005604 64 135 4.0 8.0 0.00 0.00 0.00
20260505005202 64 135 4.0 7.0 0.00 0.00 0.00
20260505004800 64 143 4.0 8.0 0.00 0.00 0.00
20260505004359 64 135 4.0 7.0 0.00 0.00 0.00
20260505003958 64 139 4.0 6.0 0.00 0.00 0.00
20260505003555 64 157 4.0 6.0 0.00 0.00 0.00
20260505003147 65 202 4.0 9.0 0.00 0.00 0.00
20260505002745 65 157 4.0 6.0 0.00 0.00 0.00
20260505002344 65 157 5.0 7.0 0.00 0.00 0.00
20260505001942 65 157 3.0 7.0 0.00 0.00 0.00
20260505001540 66 144 5.0 8.0 0.00 0.00 0.00
20260505001139 65 157 4.0 7.0 0.00 0.00 0.00
20260505000737 65 157 4.0 6.0 0.00 0.00 0.00
20260505000336 65 146 5.0 8.0 0.00 0.00 0.00
20260504235935 65 135 4.0 6.0 0.00 0.00 0.00
20260504235532 65 122 6.0 10.0 0.00 0.00 0.00
20260504235124 65 127 5.0 7.0 0.00 0.00 0.00
20260504234723 65 112 4.0 6.0 0.00 0.00 0.00
20260504234320 65 117 5.0 8.0 0.00 0.00 0.00
20260504233919 65 135 3.0 7.0 0.00 0.00 0.00
20260504233518 65 135 4.0 8.0 0.00 0.00 0.00
20260504233117 65 135 4.0 6.0 0.00 0.00 0.00
20260504232714 65 135 4.0 7.0 0.00 0.00 0.00
20260504232313 65 135 5.0 7.0 0.00 0.00 0.00
20260504231912 66 145 4.0 7.0 0.00 0.00 0.00
20260504231510 66 135 4.0 8.0 0.00 0.00 0.00
20260504231101 66 157 5.0 9.0 0.00 0.00 0.00
20260504230659 66 154 5.0 8.0 0.00 0.00 0.00
20260504230258 66 144 6.0 8.0 0.00 0.00 0.00
20260504225857 66 148 6.0 8.0 0.00 0.00 0.00
20260504225455 66 139 7.0 10.0 0.00 0.00 0.00
20260504225053 66 144 7.0 10.0 0.00 0.00 0.00
20260504224651 66 136 8.0 11.0 0.00 0.00 0.00
20260504224250 66 131 7.0 9.0 0.00 0.00 0.00
20260504223849 66 141 7.0 10.0 0.00 0.00 0.00
20260504223446 66 143 7.0 12.0 0.00 0.00 0.00
20260504223047 67 143 9.0 12.0 0.00 0.00 0.00
20260504223038 67 143 9.0 12.0 0.00 0.00 0.00
20260504222636 67 138 8.0 12.0 0.00 0.00 0.00
20260504222235 67 132 7.0 13.0 0.00 0.00 0.00
20260504221833 66 140 7.0 10.0 0.00 0.00 0.00
20260504221431 67 152 6.0 10.0 0.00 0.00 0.00
20260504221030 67 151 7.0 10.0 0.00 0.00 0.00
20260504220629 66 154 5.0 8.0 0.00 0.00 0.00
20260504220226 67 156 5.0 9.0 0.00 0.00 0.00
20260504215825 67 146 5.0 7.0 0.00 0.00 0.00
20260504215424 67 139 4.0 6.0 0.00 0.00 0.00
20260504215016 67 158 6.0 10.0 0.00 0.00 0.00
20260504214614 67 151 4.0 6.0 0.00 0.00 0.00
20260504214212 67 169 5.0 7.0 0.00 0.00 0.00
20260504213811 67 180 3.0 6.0 0.00 0.00 0.00
20260504213409 67 143 4.0 10.0 0.00 0.00 0.00
20260504213008 67 156 3.0 7.0 0.00 0.00 0.00
20260504212605 67 147 2.0 3.0 0.00 0.00 0.00
20260504212204 67 141 2.0 5.0 0.00 0.00 0.00
20260504211803 67 157 4.0 6.0 0.00 0.00 0.00
20260504211401 67 137 3.0 7.0 0.00 0.00 0.00
20260504210952 67 152 4.0 7.0 0.00 0.00 0.00
20260504210550 67 135 3.0 7.0 0.00 0.00 0.00
20260504210149 67 137 4.0 7.0 0.00 0.00 0.00
20260504205748 67 137 3.0 6.0 0.00 0.00 0.00
20260504205345 67 135 1.0 4.0 0.00 0.00 0.00
20260504204944 67 135 2.0 3.0 0.00 0.00 0.00
20260504204542 67 140 3.0 7.0 0.00 0.00 0.00
20260504204141 67 157 4.0 4.0 0.00 0.00 0.00
20260504203337 68 157 2.0 3.0 0.00 0.00 0.00
20260504202929 67 135 3.0 5.0 0.00 0.00 0.00
20260504202528 67 135 1.0 3.0 0.00 0.00 0.00
20260504202127 67 135 1.0 3.0 0.00 0.00 0.00
20260504201725 67 135 2.0 4.0 0.00 0.00 0.00
20260504201323 67 137 4.0 6.0 0.00 0.00 0.00
20260504200922 67 135 1.0 4.0 0.00 0.00 0.00
20260504200520 66 135 0.0 1.0 0.00 0.00 0.00
20260504200118 67 132 2.0 3.0 0.00 0.00 0.00
20260504195717 67 135 3.0 4.0 0.00 0.00 0.00
20260504195315 66 135 2.0 4.0 0.00 0.00 0.00
20260504194907 67 135 0.0 0.0 0.00 0.00 0.00
20260504194504 68 135 1.0 4.0 0.00 0.00 0.00
20260504194102 67 135 2.0 3.0 0.00 0.00 0.00
20260504193701 68 144 2.0 2.0 0.00 0.00 0.00
20260504193259 68 147 3.0 4.0 0.00 0.00 0.00
20260504192858 69 135 2.0 4.0 0.00 0.00 0.00
20260504192455 68 135 4.0 6.0 0.00 0.00 0.00
20260504192053 69 151 4.0 6.0 0.00 0.00 0.00
20260504191652 69 135 2.0 4.0 0.00 0.00 0.00
20260504191250 69 135 2.0 4.0 0.00 0.00 0.00
20260504190841 69 135 4.0 5.0 0.00 0.00 0.00
20260504190439 69 135 3.0 4.0 0.00 0.00 0.00
20260504190038 70 135 3.0 4.0 0.00 0.00 0.00
20260504185637 70 135 3.0 4.0 0.00 0.00 0.00
20260504185234 70 135 3.0 5.0 0.00 0.00 0.00
20260504184833 70 135 3.0 5.0 0.00 0.00 0.00
20260504184431 70 157 2.0 5.0 0.00 0.00 0.00
20260504184031 71 157 2.0 5.0 0.00 0.00 0.00
20260504183628 71 157 3.0 5.0 0.00 0.00 0.00
20260504183227 72 157 4.0 5.0 0.00 0.00 0.00
20260504182819 72 180 4.0 6.0 0.00 0.00 0.00
20260504182417 72 180 4.0 6.0 0.00 0.00 0.00
20260504182016 72 157 3.0 5.0 0.00 0.00 0.00
20260504181614 72 159 3.0 5.0 0.00 0.00 0.00
20260504181212 73 188 4.0 8.0 0.00 0.00 0.00
20260504180811 73 185 3.0 4.0 0.00 0.00 0.00
20260504180409 73 198 4.0 6.0 0.00 0.00 0.00
20260504180007 74 180 4.0 7.0 0.00 0.00 0.00
20260504175606 73 192 5.0 9.0 0.00 0.00 0.00
20260504175204 74 202 4.0 6.0 0.00 0.00 0.00
20260504174756 74 198 4.0 7.0 0.00 0.00 0.00
20260504174353 74 202 5.0 8.0 0.00 0.00 0.00
20260504173952 74 207 6.0 9.0 0.00 0.00 0.00
20260504173551 74 202 6.0 10.0 0.00 0.00 0.00
20260504173149 75 197 7.0 11.0 0.00 0.00 0.00
20260504172747 75 199 7.0 10.0 0.00 0.00 0.00
20260504172345 75 200 9.0 16.0 0.00 0.00 0.00
20260504171944 75 200 9.0 13.0 0.00 0.00 0.00
20260504171543 75 201 10.0 16.0 0.00 0.00 0.00
20260504171141 75 207 8.0 13.0 0.00 0.00 0.00
20260504170732 75 211 10.0 13.0 0.00 0.00 0.00
20260504170330 76 209 9.0 14.0 0.00 0.00 0.00
20260504160300 81 193 6.0 10.0 0.00 0.00 0.00
20260504151032 81 167 7.0 10.0 0.00 0.00 0.00
20260504150624 81 197 10.0 15.0 0.00 0.00 0.00
20260504150222 81 176 9.0 12.0 0.00 0.00 0.00
20260504140954 81 166 9.0 11.0 0.00 0.00 0.00
20260504140553 81 162 11.0 16.0 0.00 0.00 0.00
20260504140150 81 164 12.0 16.0 0.00 0.00 0.00
20260504130513 80 189 8.0 12.0 0.00 0.00 0.00
20260504130111 79 207 7.0 11.0 0.00 0.00 0.00
20260504110403 80 158 10.0 14.0 0.00 0.00 0.00
20260504100333 77 182 10.0 13.0 0.00 0.00 0.00
20260504081829 73 151 11.0 18.0 0.00 0.00 0.00
20260504081428 73 150 10.0 16.0 0.00 0.00 0.00
20260504081027 72 135 11.0 17.0 0.00 0.00 0.00
20260504080743 73 151 10.0 17.0 0.00 0.00 0.00
20260504080625 73 151 10.0 17.0 0.00 0.00 0.00
20260504080224 73 144 10.0 13.0 0.00 0.00 0.00
20260504070145 75 164 9.0 13.0 0.00 0.00 0.00
20260504060114 68 148 9.0 14.0 0.00 0.00 0.00
20260504050442 66 145 10.0 15.0 0.00 0.00 0.00
20260504045633 65 144 10.0 16.0 0.00 0.00 0.00
20260504045230 65 137 11.0 16.0 0.00 0.00 0.00
20260504044829 64 136 10.0 20.0 0.00 0.00 0.00
20260504044428 65 137 7.0 12.0 0.00 0.00 0.00
20260504044027 64 158 11.0 14.0 0.00 0.00 0.00
20260504043625 64 141 7.0 10.0 0.00 0.00 0.00
20260504043223 64 148 9.0 13.0 0.00 0.00 0.00
20260504042822 64 139 10.0 15.0 0.00 0.00 0.00
20260504042420 64 150 9.0 13.0 0.00 0.00 0.00
20260504042012 64 145 8.0 11.0 0.00 0.00 0.00